Вернуться в каталог

STARLINK-32540

АктивенСвязьVLEO
NORAD 61723·PAYLOAD·🇺🇸 United States

Запущен Oct 30, 2024 с Cape Canaveral Space Force Station

Loading…

Ближайшие Пролёты (ближайшие 24 часа)

TLE

СвежийSource: CelesTrak SupGP

Эпоха: Sep 15, 2026, 03:16 UTC

1 61723C 24196S   26258.13659722 -.00029853  00000+0 -88180-3 0  2583
2 61723  53.1582 262.4350 0001294  87.9879 230.6061 15.34412995    13

Отслеживайте STARLINK-32540 в реальном времени с AllMySat

Download on the App Store